DateTime,Index
2005091418,0.0
2005091500,0.0
2005091506,1600.0
2005091512,2500.0
2005091518,3025.0
2005091600,4225.0
2005091606,5625.0
2005091612,5625.0
2005091618,5625.0
2005091700,7225.0
2005091706,11025.0
2005091712,12100.0
2005091718,12100.0
2005091800,12100.0
2005091806,12100.0
2005091812,13225.0
2005091818,13225.0
2005091900,13225.0
2005091906,12100.0
2005091912,11025.0
2005091918,8100.0
2005092000,6400.0
2005092006,4900.0
2005092012,4225.0
2005092018,3025.0
2005092100,3025.0
2005092106,2500.0
2005092112,2500.0
2005092118,2025.0
2005092200,2025.0
2005092206,2500.0
2005092212,3025.0
2005092218,3025.0
2005092300,3025.0
2005092306,3025.0
2005092312,3025.0
2005092318,2500.0
2005092400,2500.0
2005092406,2025.0
2005092412,2500.0
2005092418,3025.0
2005092500,4225.0
2005092506,4225.0
2005092512,4225.0
2005092518,4225.0
2005092600,4225.0
2005092606,4225.0
2005092612,3600.0
2005092618,3025.0
2005092700,3025.0
2005092706,3025.0
2005092712,2500.0
2005092718,2025.0
2005092800,2025.0
2005092806,2025.0
2005092812,2025.0
2005092818,1600.0
2005092900,1225.0
2005092906,1225.0
2005092912,0.0
2005092918,0.0
2005093000,0.0
2005093006,0.0
2005093012,0.0
2005093018,0.0
